Location: Caltech
(34.1382°N, 118.1253°W)
Time: 22:14:50
(UTC-07:00)

Cosmos 2237 Rocket - Visible Passes

Search period start: 28 August 2014 00:00
Search period end: 07 September 2014 00:00
Orbit: 834 x 852 km, 71.0° (Epoch: 25 August)

Date Brightness Start Highest point End Pass type
(mag) Time Alt. Az. Time Alt. Az. Time Alt. Az.
28 Aug 5.1 05:31:30 10° SE 05:34:13 14° E 05:36:57 10° ENE visible
29 Aug 5.1 05:17:05 10° ESE 05:19:31 13° E 05:21:57 10° ENE visible
30 Aug 5.1 05:02:43 10° ESE 05:04:48 12° E 05:06:54 10° ENE visible
31 Aug 5.1 04:48:26 10° ESE 04:50:06 11° E 04:51:46 10° E visible
01 Sep 5.2 04:34:19 10° ESE 04:35:23 11° E 04:36:27 10° E visible
02 Sep 2.2 05:58:13 10° SSW 06:03:53 83° WNW 06:09:37 10° NNE visible
03 Sep 2.2 05:43:28 10° SSW 05:49:09 87° WNW 05:54:52 10° NNE visible
04 Sep 2.2 05:28:44 10° SSW 05:34:24 89° ESE 05:40:08 10° NNE visible
05 Sep 2.2 05:14:00 10° SSW 05:19:40 85° ESE 05:25:23 10° NNE visible
06 Sep 2.3 05:00:04 15° SSW 05:04:55 80° ESE 05:10:38 10° NNE visible
